Waterloo, IA

1:14 AM CDT on May 24, 2017 (GMT -0500)
Waterloo Municipal

Weather History for KALO - July, 2013

Change the Weather History Date:

Thursday, July 18, 2013

  Actual Average Record
Temperature  
Mean Temperature 85 °F 74 °F  
Max Temperature 95 °F 85 °F 102 °F (1940)
Min Temperature 74 °F 63 °F 49 °F (1914)
Degree Days  
Heating Degree Days 0 0  
Month to date heating degree days 0 0  
Since 1 June heating degree days 38 26  
Since 1 July heating degree days 0 0  
Cooling Degree Days 20 9  
Month to date cooling degree days 193 162  
Year to date cooling degree days 414 395  
Since 1 June cooling degree days 361 339  
Growing Degree Days 34 (Base 50)    
Moisture  
Dew Point 68 °F    
Average Humidity 63    
Maximum Humidity 87    
Minimum Humidity 39    
Precipitation  
Precipitation 0.00 in 0.15 in 2.78 in (1903)
Month to date precipitation 0.30 3.00  
Year to date precipitation 28.56 20.10  
Snow  
Snow 0.00 in 0.00 in - ()
Month to date snowfall 0.0 0.0  
Since 1 June snowfall 0.0 0.0  
Since 1 July snowfall 0.0 0.0  
Snow Depth 0.00 in    
Sea Level Pressure  
Sea Level Pressure 30.03 in    
Wind  
Wind Speed 10 mph (SW)    
Max Wind Speed 21 mph    
Max Gust Speed 26 mph    
Visibility 10 miles    
Events      
T = Trace of Precipitation, MM = Missing Value Source: NWS Daily Summary

Daily Weather History Graph

Daily Weather History Graph

Search for Another Location

Airport or City:

Trip Planner

Search our weather history database for the weather conditions in past years. The results will help you decide how hot, cold, wet, or windy it might be!

Date:

Astronomy

Jul. 18, 2013 Rise Set
Actual Time 5:48 AM CDT 8:42 PM CDT
Civil Twilight 5:14 AM CDT 9:16 PM CDT
Nautical Twilight 4:32 AM CDT 9:58 PM CDT
Astronomical Twilight 3:42 AM CDT 10:47 PM CDT
Moon 4:39 PM CDT (7/18) 1:40 AM CDT (7/18)
Length of Visible Light 16h 01m
Length of Day
14h 54m
Waxing Gibbous, 77% of the Moon is Illuminated
Jul 18
Waxing Gibbous
Jul 22
Full
Jul 29
Last Quarter
Aug 6
New
Aug 14
First Quarter

Hourly Weather History & Observations

Time (CDT) Temp. Heat Index Dew Point Humidity Pressure Visibility Wind Dir Wind Speed Gust Speed Precip Events Conditions
12:54 AM 78.1 °F - 71.1 °F 79% 30.15 in 10.0 mi SSW 4.6 mph - N/A   Clear
1:54 AM 75.9 °F - 71.1 °F 85% 30.15 in 10.0 mi South 3.5 mph - N/A   Clear
2:54 AM 75.0 °F - 71.1 °F 87% 30.14 in 10.0 mi Calm Calm - N/A   Clear
3:54 AM 75.0 °F - 70.0 °F 84% 30.14 in 10.0 mi SW 3.5 mph - N/A   Clear
4:54 AM 73.9 °F - 69.1 °F 85% 30.12 in 10.0 mi SSW 3.5 mph - N/A   Clear
5:54 AM 73.9 °F - 69.1 °F 85% 30.12 in 10.0 mi SSW 3.5 mph - N/A   Clear
6:54 AM 75.9 °F - 70.0 °F 82% 30.11 in 10.0 mi SW 6.9 mph - N/A   Clear
7:54 AM 80.1 °F 83.2 °F 70.0 °F 71% 30.10 in 10.0 mi WSW 8.1 mph - N/A   Clear
8:54 AM 84.9 °F 89.4 °F 70.0 °F 61% 30.09 in 10.0 mi SW 11.5 mph - N/A   Clear
9:54 AM 88.0 °F 92.1 °F 69.1 °F 53% 30.09 in 10.0 mi West 12.7 mph 21.9 mph N/A   Clear
10:54 AM 90.0 °F 94.5 °F 69.1 °F 50% 30.07 in 10.0 mi WSW 13.8 mph - N/A   Clear
11:54 AM 91.9 °F 95.4 °F 66.9 °F 44% 30.06 in 10.0 mi SW 15.0 mph - N/A   Clear
12:54 PM 93.0 °F 95.9 °F 66.0 °F 41% 30.04 in 10.0 mi WSW 12.7 mph 20.7 mph N/A   Partly Cloudy
1:54 PM 93.9 °F 97.0 °F 66.0 °F 40% 30.01 in 10.0 mi SW 17.3 mph 21.9 mph N/A   Clear
2:54 PM 93.0 °F 95.9 °F 66.0 °F 41% 29.99 in 10.0 mi SSW 16.1 mph - N/A   Scattered Clouds
3:54 PM 93.9 °F 97.0 °F 66.0 °F 40% 29.97 in 10.0 mi SW 16.1 mph 26.5 mph N/A   Partly Cloudy
4:54 PM 93.0 °F 95.9 °F 66.0 °F 41% 29.95 in 10.0 mi SW 12.7 mph 25.3 mph N/A   Partly Cloudy
5:54 PM 93.0 °F 95.0 °F 64.9 °F 39% 29.93 in 10.0 mi SW 17.3 mph - N/A   Clear
6:54 PM 91.0 °F 93.8 °F 66.0 °F 44% 29.91 in 10.0 mi SSW 12.7 mph - N/A   Clear
7:54 PM 88.0 °F 90.3 °F 66.0 °F 48% 29.91 in 10.0 mi SSW 9.2 mph - N/A   Clear
8:54 PM 82.9 °F 85.8 °F 68.0 °F 60% 29.90 in 10.0 mi South 8.1 mph - N/A   Clear
9:54 PM 82.9 °F 85.8 °F 68.0 °F 60% 29.90 in 10.0 mi SSW 9.2 mph - N/A   Clear
10:54 PM 82.0 °F 84.5 °F 66.9 °F 60% 29.90 in 10.0 mi SSW 9.2 mph - N/A   Clear
11:54 PM 81.0 °F 83.3 °F 66.9 °F 62% 29.89 in 10.0 mi SSW 10.4 mph - N/A   Clear